Time,TemperatureF,DewpointF,PressureIn,WindDirection,WindDirectionDegrees,WindSpeedMPH,WindSpeedGustMPH,Humidity,HourlyPrecipIn,Conditions,Clouds,dailyrainin,SolarRadiationWatts/m^2,SoftwareType,DateUTC
2013-07-27 00:00:00,79.3,56.1,30.15,NE,55,8.0,0.0,45,0.00,,,0.12,0,WeatherHawk,2013-07-27 05:00:00,
2013-07-27 00:05:00,79.1,55.9,30.15,North,7,7.0,0.0,45,0.00,,,0.00,1,WeatherHawk,2013-07-27 05:05:00,
2013-07-27 00:10:00,78.9,56.4,30.16,NNE,19,7.0,0.0,46,0.00,,,0.00,0,WeatherHawk,2013-07-27 05:10:00,
2013-07-27 00:16:00,79.1,56.5,30.16,NNE,19,8.0,0.0,46,0.00,,,0.00,0,WeatherHawk,2013-07-27 05:16:00,
2013-07-27 00:22:00,78.7,56.1,30.15,North,6,8.0,0.0,46,0.00,,,0.00,0,WeatherHawk,2013-07-27 05:22:00,
2013-07-27 00:27:00,78.5,56.0,30.16,NNE,23,10.0,0.0,46,0.00,,,0.00,1,WeatherHawk,2013-07-27 05:27:00,
2013-07-27 00:32:00,78.5,56.0,30.16,North,9,4.0,0.0,46,0.00,,,0.00,0,WeatherHawk,2013-07-27 05:32:00,
2013-07-27 00:38:00,78.1,55.6,30.16,NE,44,6.0,0.0,46,0.00,,,0.00,0,WeatherHawk,2013-07-27 05:38:00,
2013-07-27 00:43:00,78.1,55.6,30.16,NNE,23,8.0,0.0,46,0.00,,,0.00,0,WeatherHawk,2013-07-27 05:43:00,
2013-07-27 00:48:00,78.0,55.5,30.17,NNE,22,8.0,0.0,46,0.00,,,0.00,1,WeatherHawk,2013-07-27 05:48:00,
2013-07-27 00:53:00,78.0,55.5,30.16,NNE,20,6.0,0.0,46,0.00,,,0.00,0,WeatherHawk,2013-07-27 05:53:00,
2013-07-27 00:58:00,77.9,55.5,30.16,North,11,7.0,0.0,46,0.00,,,0.00,1,WeatherHawk,2013-07-27 05:58:00,
2013-07-27 01:03:00,78.0,55.6,30.17,NNE,18,8.0,0.0,46,0.00,,,0.00,0,WeatherHawk,2013-07-27 06:03:00,
2013-07-27 01:08:00,77.9,55.5,30.17,NNE,18,13.0,0.0,46,0.00,,,0.00,0,WeatherHawk,2013-07-27 06:08:00,
2013-07-27 01:13:00,77.9,55.5,30.17,NE,45,4.0,0.0,46,0.00,,,0.00,1,WeatherHawk,2013-07-27 06:13:00,
2013-07-27 01:18:00,77.7,55.9,30.18,North,0,10.0,0.0,47,0.00,,,0.00,0,WeatherHawk,2013-07-27 06:18:00,
2013-07-27 01:24:00,77.6,55.8,30.17,NNE,21,8.0,0.0,47,0.00,,,0.00,0,WeatherHawk,2013-07-27 06:24:00,
2013-07-27 01:29:00,77.6,54.6,30.17,NNE,20,7.0,0.0,45,0.00,,,0.00,1,WeatherHawk,2013-07-27 06:29:00,
2013-07-27 01:34:00,77.6,54.6,30.16,NNE,25,6.0,0.0,45,0.00,,,0.00,0,WeatherHawk,2013-07-27 06:34:00,
2013-07-27 01:40:00,77.5,53.9,30.17,NE,39,5.0,0.0,44,0.00,,,0.00,0,WeatherHawk,2013-07-27 06:40:00,
2013-07-27 01:45:00,77.4,53.8,30.17,NNE,19,10.0,0.0,44,0.00,,,0.00,1,WeatherHawk,2013-07-27 06:45:00,
2013-07-27 01:50:00,77.5,53.8,30.17,North,2,11.0,0.0,44,0.00,,,0.00,0,WeatherHawk,2013-07-27 06:50:00,
2013-07-27 01:55:00,77.3,53.7,30.17,NNE,15,9.0,-999.0,44,0.00,,,0.00,0,WeatherHawk,2013-07-27 06:55:00,
2013-07-27 02:00:00,77.2,53.6,30.16,North,10,7.0,0.0,44,0.00,,,0.00,0,WeatherHawk,2013-07-27 07:00:00,
2013-07-27 02:05:00,77.1,54.1,30.16,NNE,27,8.0,-999.0,45,0.00,,,0.00,1,WeatherHawk,2013-07-27 07:05:00,
2013-07-27 02:10:00,77.1,54.1,30.17,North,0,5.0,0.0,45,0.00,,,0.00,0,WeatherHawk,2013-07-27 07:10:00,
2013-07-27 02:15:00,77.1,54.7,30.16,NNW,340,6.0,-999.0,46,0.00,,,0.00,0,WeatherHawk,2013-07-27 07:15:00,
2013-07-27 02:20:00,76.8,54.4,30.16,North,9,7.0,-999.0,46,0.00,,,0.00,0,WeatherHawk,2013-07-27 07:20:00,
2013-07-27 02:25:00,76.8,54.4,30.16,NNE,22,10.0,0.0,46,0.00,,,0.00,0,WeatherHawk,2013-07-27 07:25:00,
2013-07-27 02:30:00,76.5,54.2,30.16,NNE,18,5.0,-999.0,46,0.00,,,0.00,1,WeatherHawk,2013-07-27 07:30:00,
2013-07-27 02:35:00,76.5,54.1,30.16,North,3,6.0,0.0,46,0.00,,,0.00,1,WeatherHawk,2013-07-27 07:35:00,
2013-07-27 02:40:00,76.1,54.4,30.17,NNE,12,6.0,0.0,47,0.00,,,0.00,0,WeatherHawk,2013-07-27 07:40:00,
2013-07-27 02:45:00,75.9,54.8,30.17,NE,43,6.0,-999.0,48,0.00,,,0.00,1,WeatherHawk,2013-07-27 07:45:00,
2013-07-27 02:50:00,75.8,54.7,30.16,NNE,20,7.0,0.0,48,0.00,,,0.00,0,WeatherHawk,2013-07-27 07:50:00,
2013-07-27 02:55:00,75.6,55.1,30.18,NNE,15,4.0,-999.0,49,0.00,,,0.00,1,WeatherHawk,2013-07-27 07:55:00,
2013-07-27 03:00:00,75.5,55.5,30.17,NE,41,7.0,0.0,50,0.00,,,0.00,0,WeatherHawk,2013-07-27 08:00:00,
2013-07-27 03:05:00,75.3,55.9,30.18,North,4,4.0,-999.0,51,0.00,,,0.00,0,WeatherHawk,2013-07-27 08:05:00,
2013-07-27 03:10:00,75.3,55.9,30.16,NNE,27,6.0,-999.0,51,0.00,,,0.00,0,WeatherHawk,2013-07-27 08:10:00,
2013-07-27 03:15:00,75.2,55.8,30.18,NNE,12,5.0,-999.0,51,0.00,,,0.00,1,WeatherHawk,2013-07-27 08:15:00,
2013-07-27 03:20:00,75.1,55.2,30.19,North,11,4.0,-999.0,50,0.00,,,0.00,0,WeatherHawk,2013-07-27 08:20:00,
2013-07-27 03:25:00,75.2,55.2,30.18,NNE,25,6.0,-999.0,50,0.00,,,0.00,1,WeatherHawk,2013-07-27 08:25:00,
2013-07-27 03:30:00,75.1,55.2,30.18,NE,35,5.0,-999.0,50,0.00,,,0.00,1,WeatherHawk,2013-07-27 08:30:00,
2013-07-27 03:35:00,75.2,55.3,30.18,North,6,5.0,0.0,50,0.00,,,0.00,0,WeatherHawk,2013-07-27 08:35:00,
2013-07-27 03:40:00,75.1,54.7,30.17,NNE,22,7.0,0.0,49,0.00,,,0.00,0,WeatherHawk,2013-07-27 08:40:00,
2013-07-27 03:45:00,75.2,54.7,30.17,North,0,7.0,0.0,49,0.00,,,0.00,0,WeatherHawk,2013-07-27 08:45:00,
2013-07-27 03:50:00,75.2,54.7,30.17,NNE,13,7.0,0.0,49,0.00,,,0.00,0,WeatherHawk,2013-07-27 08:50:00,
2013-07-27 03:55:00,75.1,54.1,30.17,NW,308,4.0,0.0,48,0.00,,,0.00,0,WeatherHawk,2013-07-27 08:55:00,
2013-07-27 04:00:00,75.1,54.1,30.18,NNW,347,6.0,0.0,48,0.00,,,0.00,0,WeatherHawk,2013-07-27 09:00:00,
2013-07-27 04:05:00,75.0,54.5,30.17,ENE,78,3.0,0.0,49,0.00,,,0.00,0,WeatherHawk,2013-07-27 09:05:00,
2013-07-27 04:10:00,75.1,54.6,30.17,NNE,16,8.0,0.0,49,0.00,,,0.00,1,WeatherHawk,2013-07-27 09:10:00,
2013-07-27 04:15:00,75.0,55.1,30.17,NNE,16,3.0,0.0,50,0.00,,,0.00,0,WeatherHawk,2013-07-27 09:15:00,
2013-07-27 04:20:00,75.0,55.1,30.17,North,3,4.0,-999.0,50,0.00,,,0.00,0,WeatherHawk,2013-07-27 09:20:00,
2013-07-27 04:25:00,75.1,55.2,30.17,North,11,5.0,0.0,50,0.00,,,0.00,0,WeatherHawk,2013-07-27 09:25:00,
2013-07-27 04:30:00,75.1,55.2,30.17,NNW,331,4.0,0.0,50,0.00,,,0.00,1,WeatherHawk,2013-07-27 09:30:00,
2013-07-27 04:35:00,75.1,55.2,30.18,NNE,30,7.0,0.0,50,0.00,,,0.00,1,WeatherHawk,2013-07-27 09:35:00,
2013-07-27 04:40:00,75.2,55.2,30.17,NNE,23,4.0,0.0,50,0.00,,,0.00,1,WeatherHawk,2013-07-27 09:40:00,
2013-07-27 04:45:00,75.2,55.3,30.17,NNE,26,5.0,0.0,50,0.00,,,0.00,0,WeatherHawk,2013-07-27 09:45:00,
2013-07-27 04:50:00,75.0,54.5,30.18,WSW,244,6.0,0.0,49,0.00,,,0.00,0,WeatherHawk,2013-07-27 09:50:00,
2013-07-27 04:55:00,74.9,54.4,30.17,NE,39,5.0,-999.0,49,0.00,,,0.00,1,WeatherHawk,2013-07-27 09:55:00,
2013-07-27 05:00:00,74.8,53.8,30.18,NNW,330,8.0,0.0,48,0.00,,,0.00,0,WeatherHawk,2013-07-27 10:00:00,
2013-07-27 05:05:00,74.7,53.2,30.18,NE,41,6.0,-999.0,47,0.00,,,0.00,1,WeatherHawk,2013-07-27 10:05:00,
2013-07-27 05:10:00,74.7,53.1,30.17,NE,53,5.0,-999.0,47,0.00,,,0.00,1,WeatherHawk,2013-07-27 10:10:00,
2013-07-27 05:15:00,74.7,53.1,30.18,NE,39,7.0,0.0,47,0.00,,,0.00,0,WeatherHawk,2013-07-27 10:15:00,
2013-07-27 05:20:00,74.5,53.5,30.17,NNW,333,7.0,-999.0,48,0.00,,,0.00,0,WeatherHawk,2013-07-27 10:20:00,
2013-07-27 05:25:00,74.4,53.9,30.18,NNE,25,7.0,0.0,49,0.00,,,0.00,1,WeatherHawk,2013-07-27 10:25:00,
2013-07-27 05:30:00,74.4,53.9,30.18,NE,44,9.0,0.0,49,0.00,,,0.00,0,WeatherHawk,2013-07-27 10:30:00,
2013-07-27 05:35:00,74.4,52.9,30.18,North,10,9.0,-999.0,47,0.00,,,0.00,0,WeatherHawk,2013-07-27 10:35:00,
2013-07-27 05:40:00,74.4,52.9,30.18,NNE,15,11.0,0.0,47,0.00,,,0.00,0,WeatherHawk,2013-07-27 10:40:00,
2013-07-27 05:45:00,74.4,52.3,30.18,North,8,4.0,0.0,46,0.00,,,0.00,0,WeatherHawk,2013-07-27 10:45:00,
2013-07-27 05:50:00,74.5,52.3,30.19,NNE,12,6.0,0.0,46,0.00,,,0.00,0,WeatherHawk,2013-07-27 10:50:00,
2013-07-27 05:55:00,74.5,52.9,30.18,NNE,17,8.0,0.0,47,0.00,,,0.00,0,WeatherHawk,2013-07-27 10:55:00,
2013-07-27 06:00:00,74.4,52.9,30.18,NNW,342,2.0,0.0,47,0.00,,,0.00,0,WeatherHawk,2013-07-27 11:00:00,
2013-07-27 06:05:00,74.4,53.4,30.19,NNE,26,7.0,0.0,48,0.00,,,0.00,2,WeatherHawk,2013-07-27 11:05:00,
2013-07-27 06:10:00,74.4,53.4,30.18,North,6,8.0,0.0,48,0.00,,,0.00,0,WeatherHawk,2013-07-27 11:10:00,
2013-07-27 06:15:00,74.3,53.3,30.18,North,351,9.0,0.0,48,0.00,,,0.00,0,WeatherHawk,2013-07-27 11:15:00,
2013-07-27 06:20:00,74.3,53.9,30.18,NNE,15,10.0,-999.0,49,0.00,,,0.00,0,WeatherHawk,2013-07-27 11:20:00,
2013-07-27 06:25:00,74.3,53.9,30.19,NNE,23,6.0,-999.0,49,0.00,,,0.00,0,WeatherHawk,2013-07-27 11:25:00,
2013-07-27 06:30:00,74.2,53.8,30.18,NE,45,6.0,0.0,49,0.00,,,0.00,2,WeatherHawk,2013-07-27 11:30:00,
2013-07-27 06:35:00,74.2,53.8,30.18,NNE,32,9.0,0.0,49,0.00,,,0.00,1,WeatherHawk,2013-07-27 11:35:00,
2013-07-27 06:40:00,74.3,53.9,30.18,NE,40,7.0,-999.0,49,0.00,,,0.00,2,WeatherHawk,2013-07-27 11:40:00,
2013-07-27 06:45:00,74.2,53.8,30.19,NNE,20,9.0,0.0,49,0.00,,,0.00,5,WeatherHawk,2013-07-27 11:45:00,
2013-07-27 06:50:00,74.3,53.4,30.19,NNE,16,5.0,-999.0,48,0.00,,,0.00,8,WeatherHawk,2013-07-27 11:50:00,
2013-07-27 06:55:00,74.4,52.2,30.19,North,2,10.0,-999.0,46,0.00,,,0.00,12,WeatherHawk,2013-07-27 11:55:00,
2013-07-27 07:00:00,74.2,51.5,30.20,North,11,12.0,0.0,45,0.00,,,0.00,20,WeatherHawk,2013-07-27 12:00:00,
2013-07-27 07:05:00,74.3,52.1,30.19,North,9,10.0,0.0,46,0.00,,,0.00,24,WeatherHawk,2013-07-27 12:05:00,
2013-07-27 07:10:00,74.2,51.4,30.20,NNE,18,9.0,-999.0,45,0.00,,,0.00,26,WeatherHawk,2013-07-27 12:10:00,
2013-07-27 07:15:00,74.1,51.4,30.19,North,9,9.0,0.0,45,0.00,,,0.00,21,WeatherHawk,2013-07-27 12:15:00,
2013-07-27 07:20:00,74.2,51.5,30.19,NE,40,7.0,0.0,45,0.00,,,0.00,24,WeatherHawk,2013-07-27 12:20:00,
2013-07-27 07:25:00,74.2,51.4,30.20,NNE,23,5.0,0.0,45,0.00,,,0.00,27,WeatherHawk,2013-07-27 12:25:00,
2013-07-27 07:30:00,74.1,50.1,30.20,ENE,76,9.0,0.0,43,0.00,,,0.00,39,WeatherHawk,2013-07-27 12:30:00,
2013-07-27 07:35:00,74.3,50.9,30.21,North,10,4.0,0.0,44,0.00,,,0.00,42,WeatherHawk,2013-07-27 12:35:00,
2013-07-27 07:40:00,74.2,50.3,30.20,NNE,24,9.0,0.0,43,0.00,,,0.00,53,WeatherHawk,2013-07-27 12:40:00,
2013-07-27 07:45:00,74.3,50.4,30.20,NE,40,5.0,-999.0,43,0.00,,,0.00,55,WeatherHawk,2013-07-27 12:45:00,
2013-07-27 07:50:00,74.3,50.3,30.21,North,1,7.0,0.0,43,0.00,,,0.00,55,WeatherHawk,2013-07-27 12:50:00,
2013-07-27 07:55:00,74.4,50.4,30.21,NNE,16,7.0,0.0,43,0.00,,,0.00,61,WeatherHawk,2013-07-27 12:55:00,
2013-07-27 08:00:00,74.4,50.4,30.21,NNE,28,5.0,0.0,43,0.00,,,0.00,83,WeatherHawk,2013-07-27 13:00:00,
2013-07-27 08:05:00,74.5,50.5,30.21,North,11,7.0,-999.0,43,0.00,,,0.00,87,WeatherHawk,2013-07-27 13:05:00,
2013-07-27 08:10:00,74.4,49.8,30.21,NNE,15,10.0,-999.0,42,0.00,,,0.00,92,WeatherHawk,2013-07-27 13:10:00,
2013-07-27 08:15:00,74.7,50.1,30.20,North,6,6.0,0.0,42,0.00,,,0.00,104,WeatherHawk,2013-07-27 13:15:00,
2013-07-27 08:20:00,74.4,49.8,30.21,NNE,25,7.0,-999.0,42,0.00,,,0.00,109,WeatherHawk,2013-07-27 13:20:00,
2013-07-27 08:25:00,74.4,49.8,30.21,NNE,30,6.0,-999.0,42,0.00,,,0.00,91,WeatherHawk,2013-07-27 13:25:00,
2013-07-27 08:30:00,74.3,49.7,30.21,NNE,20,12.0,-999.0,42,0.00,,,0.00,92,WeatherHawk,2013-07-27 13:30:00,
2013-07-27 08:35:00,74.4,49.8,30.21,NNE,26,10.0,-999.0,42,0.00,,,0.00,125,WeatherHawk,2013-07-27 13:35:00,
2013-07-27 08:40:00,74.6,49.9,30.21,NNE,22,6.0,0.0,42,0.00,,,0.00,187,WeatherHawk,2013-07-27 13:40:00,
2013-07-27 08:45:00,74.9,48.9,30.21,NE,47,9.0,-999.0,40,0.00,,,0.00,224,WeatherHawk,2013-07-27 13:45:00,
2013-07-27 08:50:00,74.5,48.6,30.20,NNE,27,10.0,-999.0,40,0.00,,,0.00,184,WeatherHawk,2013-07-27 13:50:00,
2013-07-27 08:55:00,75.0,48.3,30.20,NNE,24,6.0,-999.0,39,0.00,,,0.00,204,WeatherHawk,2013-07-27 13:55:00,
2013-07-27 09:00:00,75.8,48.4,30.20,SSE,151,4.0,0.0,38,0.00,,,0.00,292,WeatherHawk,2013-07-27 14:00:00,
2013-07-27 09:05:00,75.5,45.9,30.20,NNE,20,7.0,0.0,35,0.00,,,0.00,318,WeatherHawk,2013-07-27 14:05:00,
2013-07-27 09:11:00,76.5,45.3,30.20,North,351,5.0,0.0,33,0.00,,,0.00,286,WeatherHawk,2013-07-27 14:11:00,
2013-07-27 09:16:00,77.7,47.1,30.20,NNW,335,2.0,0.0,34,0.00,,,0.00,466,WeatherHawk,2013-07-27 14:16:00,
2013-07-27 09:21:00,76.0,45.6,30.20,NNE,18,6.0,0.0,34,0.00,,,0.00,361,WeatherHawk,2013-07-27 14:21:00,
2013-07-27 09:26:00,76.9,44.0,30.20,NNE,23,6.0,0.0,31,0.00,,,0.00,792,WeatherHawk,2013-07-27 14:26:00,
2013-07-27 09:32:00,77.2,42.5,30.20,NNE,16,7.0,0.0,29,0.00,,,0.00,374,WeatherHawk,2013-07-27 14:32:00,
2013-07-27 09:38:00,78.4,42.6,30.20,NNE,24,6.0,0.0,28,0.00,,,0.00,717,WeatherHawk,2013-07-27 14:38:00,
2013-07-27 09:43:00,78.3,42.5,30.19,North,0,8.0,0.0,28,0.00,,,0.00,535,WeatherHawk,2013-07-27 14:43:00,
2013-07-27 09:48:00,77.3,44.2,30.20,North,8,7.0,0.0,31,0.00,,,0.00,250,WeatherHawk,2013-07-27 14:48:00,
2013-07-27 09:53:00,76.9,43.1,30.20,NE,39,6.0,0.0,30,0.00,,,0.00,297,WeatherHawk,2013-07-27 14:53:00,
2013-07-27 09:58:00,78.5,43.6,30.19,NNE,29,4.0,0.0,29,0.00,,,0.00,388,WeatherHawk,2013-07-27 14:58:00,
2013-07-27 10:03:00,79.7,43.6,30.20,NE,51,11.0,0.0,28,0.00,,,0.00,733,WeatherHawk,2013-07-27 15:03:00,
2013-07-27 10:08:00,80.7,42.6,30.19,NW,325,5.0,0.0,26,0.00,,,0.00,805,WeatherHawk,2013-07-27 15:08:00,
2013-07-27 10:13:00,79.3,39.4,30.20,NE,45,4.0,0.0,24,0.00,,,0.00,732,WeatherHawk,2013-07-27 15:13:00,
2013-07-27 10:18:00,78.9,39.0,30.19,NE,37,8.0,0.0,24,0.00,,,0.00,732,WeatherHawk,2013-07-27 15:18:00,
2013-07-27 10:23:00,79.7,42.7,30.21,NNW,342,4.0,0.0,27,0.00,,,0.00,285,WeatherHawk,2013-07-27 15:23:00,
2013-07-27 10:29:00,78.2,41.5,30.20,NNE,26,3.0,0.0,27,0.00,,,0.00,390,WeatherHawk,2013-07-27 15:29:00,
2013-07-27 10:34:00,78.2,40.5,30.20,North,9,7.0,0.0,26,0.00,,,0.00,755,WeatherHawk,2013-07-27 15:34:00,
2013-07-27 10:39:00,77.9,40.2,30.20,NE,40,5.0,0.0,26,0.00,,,0.00,336,WeatherHawk,2013-07-27 15:39:00,
2013-07-27 10:44:00,78.0,41.3,30.20,NNE,22,6.0,0.0,27,0.00,,,0.00,978,WeatherHawk,2013-07-27 15:44:00,
2013-07-27 10:49:00,79.7,38.6,30.20,NNE,21,8.0,0.0,23,0.00,,,0.00,262,WeatherHawk,2013-07-27 15:49:00,
2013-07-27 10:54:00,80.4,36.9,30.20,ENE,70,7.0,0.0,21,0.00,,,0.00,895,WeatherHawk,2013-07-27 15:54:00,
2013-07-27 10:59:00,81.2,36.3,30.19,ENE,64,3.0,0.0,20,0.00,,,0.00,516,WeatherHawk,2013-07-27 15:59:00,
2013-07-27 11:04:00,80.7,35.9,30.19,East,90,5.0,0.0,20,0.00,,,0.00,386,WeatherHawk,2013-07-27 16:04:00,
2013-07-27 11:10:00,79.0,36.9,30.20,ENE,73,6.0,0.0,22,0.00,,,0.00,595,WeatherHawk,2013-07-27 16:10:00,
2013-07-27 11:15:00,82.4,37.3,30.20,ENE,66,4.0,0.0,20,0.00,,,0.00,1028,WeatherHawk,2013-07-27 16:15:00,
2013-07-27 11:20:00,84.4,34.8,30.20,WSW,251,2.0,-999.0,17,0.00,,,0.00,921,WeatherHawk,2013-07-27 16:20:00,
2013-07-27 11:25:00,83.8,35.8,30.20,East,91,4.0,0.0,18,0.00,,,0.00,900,WeatherHawk,2013-07-27 16:25:00,
2013-07-27 11:30:00,79.8,29.6,30.19,NNE,13,12.0,0.0,16,0.00,,,0.00,928,WeatherHawk,2013-07-27 16:30:00,
2013-07-27 11:35:00,81.0,34.8,30.20,North,2,7.0,0.0,19,0.00,,,0.00,1017,WeatherHawk,2013-07-27 16:35:00,
2013-07-27 11:40:00,79.6,37.4,30.20,NNE,32,10.0,-999.0,22,0.00,,,0.00,333,WeatherHawk,2013-07-27 16:40:00,
2013-07-27 11:45:00,81.5,40.1,30.20,SE,126,2.0,0.0,23,0.00,,,0.00,328,WeatherHawk,2013-07-27 16:45:00,
2013-07-27 11:50:00,81.0,38.6,30.20,NE,54,5.0,0.0,22,0.00,,,0.00,241,WeatherHawk,2013-07-27 16:50:00,
2013-07-27 11:55:00,80.7,38.3,30.20,North,9,5.0,-999.0,22,0.00,,,0.00,958,WeatherHawk,2013-07-27 16:55:00,
2013-07-27 12:00:00,80.7,37.1,30.20,NW,326,10.0,0.0,21,0.00,,,0.00,479,WeatherHawk,2013-07-27 17:00:00,
2013-07-27 12:05:00,81.8,36.8,30.19,ENE,66,5.0,0.0,20,0.00,,,0.00,946,WeatherHawk,2013-07-27 17:05:00,
2013-07-27 12:10:00,80.4,31.6,30.20,NNE,19,5.0,0.0,17,0.00,,,0.00,957,WeatherHawk,2013-07-27 17:10:00,
2013-07-27 12:15:00,84.5,34.9,30.20,ESE,105,5.0,0.0,17,0.00,,,0.00,967,WeatherHawk,2013-07-27 17:15:00,
2013-07-27 12:20:00,84.0,34.4,30.20,North,0,3.0,0.0,17,0.00,,,0.00,1014,WeatherHawk,2013-07-27 17:20:00,
2013-07-27 12:25:00,85.4,34.1,30.19,WSW,250,2.0,0.0,16,0.00,,,0.00,1142,WeatherHawk,2013-07-27 17:25:00,
2013-07-27 12:30:00,83.0,27.1,30.18,NW,315,9.0,-999.0,13,0.00,,,0.00,1174,WeatherHawk,2013-07-27 17:30:00,
2013-07-27 12:35:00,85.4,30.7,30.18,NE,39,5.0,0.0,14,0.00,,,0.00,1018,WeatherHawk,2013-07-27 17:35:00,
2013-07-27 12:40:00,84.3,28.1,30.19,North,4,5.0,0.0,13,0.00,,,0.00,1209,WeatherHawk,2013-07-27 17:40:00,
2013-07-27 12:45:00,84.9,26.7,30.18,NNE,28,6.0,0.0,12,0.00,,,0.00,1132,WeatherHawk,2013-07-27 17:45:00,
2013-07-27 12:50:00,86.5,29.8,30.18,ESE,105,4.0,0.0,13,0.00,,,0.00,1096,WeatherHawk,2013-07-27 17:50:00,
2013-07-27 12:55:00,87.7,28.8,30.18,North,3,2.0,-999.0,12,0.00,,,0.00,1037,WeatherHawk,2013-07-27 17:55:00,
2013-07-27 13:00:00,83.9,27.8,30.17,ENE,68,7.0,0.0,13,0.00,,,0.00,1076,WeatherHawk,2013-07-27 18:00:00,
2013-07-27 13:05:00,83.2,23.2,30.17,NNE,15,5.0,-999.0,11,0.00,,,0.00,1025,WeatherHawk,2013-07-27 18:05:00,
2013-07-27 13:10:00,85.6,29.1,30.16,NNE,24,2.0,-999.0,13,0.00,,,0.00,1038,WeatherHawk,2013-07-27 18:10:00,
2013-07-27 13:15:00,82.1,24.5,30.18,North,10,7.0,-999.0,12,0.00,,,0.00,1022,WeatherHawk,2013-07-27 18:15:00,
2013-07-27 13:20:00,82.7,22.8,30.17,NNE,28,5.0,-999.0,11,0.00,,,0.00,1016,WeatherHawk,2013-07-27 18:20:00,
2013-07-27 13:25:00,89.1,29.9,30.18,South,174,0.0,-999.0,12,0.00,,,0.00,1077,WeatherHawk,2013-07-27 18:25:00,
2013-07-27 13:30:00,85.7,27.3,30.17,SE,127,5.0,-999.0,12,0.00,,,0.00,1021,WeatherHawk,2013-07-27 18:30:00,
2013-07-27 13:35:00,84.6,24.3,30.17,NNE,33,1.0,-999.0,11,0.00,,,0.00,1063,WeatherHawk,2013-07-27 18:35:00,
2013-07-27 13:40:00,83.2,25.3,30.18,NNE,32,7.0,0.0,12,0.00,,,0.00,1051,WeatherHawk,2013-07-27 18:40:00,
2013-07-27 13:45:00,86.0,27.5,30.17,NE,56,3.0,0.0,12,0.00,,,0.00,422,WeatherHawk,2013-07-27 18:45:00,
2013-07-27 13:50:00,88.4,27.2,30.16,North,9,3.0,0.0,11,0.00,,,0.00,1000,WeatherHawk,2013-07-27 18:50:00,
2013-07-27 13:55:00,85.1,20.0,30.17,North,7,9.0,-999.0,9,0.00,,,0.00,1035,WeatherHawk,2013-07-27 18:55:00,
2013-07-27 14:00:00,86.3,29.6,30.16,NNE,28,6.0,0.0,13,0.00,,,0.00,1054,WeatherHawk,2013-07-27 19:00:00,
2013-07-27 14:05:00,84.7,31.9,30.17,NNE,17,9.0,0.0,15,0.00,,,0.00,1047,WeatherHawk,2013-07-27 19:05:00,
2013-07-27 14:10:00,86.4,29.7,30.16,NE,40,7.0,0.0,13,0.00,,,0.00,1066,WeatherHawk,2013-07-27 19:10:00,
2013-07-27 14:15:00,85.5,25.0,30.18,NNE,18,6.0,0.0,11,0.00,,,0.00,1054,WeatherHawk,2013-07-27 19:15:00,
2013-07-27 14:20:00,85.6,22.8,30.17,North,10,3.0,0.0,10,0.00,,,0.00,1049,WeatherHawk,2013-07-27 19:20:00,
2013-07-27 14:25:00,88.3,19.6,30.15,NE,52,4.0,0.0,8,0.00,,,0.00,998,WeatherHawk,2013-07-27 19:25:00,
2013-07-27 14:30:00,86.6,23.6,30.14,East,93,6.0,-999.0,10,0.00,,,0.00,975,WeatherHawk,2013-07-27 19:30:00,
2013-07-27 14:35:00,88.1,22.2,30.15,NNW,335,2.0,0.0,9,0.00,,,0.00,566,WeatherHawk,2013-07-27 19:35:00,
2013-07-27 14:40:00,87.2,26.3,30.12,WNW,298,0.0,-999.0,11,0.00,,,0.00,978,WeatherHawk,2013-07-27 19:40:00,
2013-07-27 14:45:00,88.2,22.2,30.15,South,174,4.0,-999.0,9,0.00,,,0.00,968,WeatherHawk,2013-07-27 19:45:00,
2013-07-27 14:50:00,86.9,23.8,30.14,NNE,21,7.0,-999.0,10,0.00,,,0.00,940,WeatherHawk,2013-07-27 19:50:00,
2013-07-27 14:55:00,85.8,22.9,30.16,NNW,332,9.0,-999.0,10,0.00,,,0.00,939,WeatherHawk,2013-07-27 19:55:00,
2013-07-27 15:00:00,87.0,26.1,30.15,NNE,26,5.0,-999.0,11,0.00,,,0.00,948,WeatherHawk,2013-07-27 20:00:00,
2013-07-27 15:05:00,86.9,28.2,30.13,North,9,4.0,0.0,12,0.00,,,0.00,982,WeatherHawk,2013-07-27 20:05:00,
2013-07-27 15:10:00,93.0,28.3,30.14,ENE,75,0.0,-999.0,10,0.00,,,0.00,831,WeatherHawk,2013-07-27 20:10:00,
2013-07-27 15:15:00,86.9,23.8,30.14,NNE,21,6.0,0.0,10,0.00,,,0.00,924,WeatherHawk,2013-07-27 20:15:00,
2013-07-27 15:20:00,87.9,22.0,30.13,East,84,8.0,-999.0,9,0.00,,,0.00,288,WeatherHawk,2013-07-27 20:20:00,
2013-07-27 15:25:00,88.5,25.0,30.14,NNE,18,7.0,0.0,10,0.00,,,0.00,910,WeatherHawk,2013-07-27 20:25:00,
2013-07-27 15:30:00,86.8,18.5,30.14,NNE,19,10.0,0.0,8,0.00,,,0.00,879,WeatherHawk,2013-07-27 20:30:00,
2013-07-27 15:35:00,87.0,23.9,30.13,NE,56,7.0,0.0,10,0.00,,,0.00,869,WeatherHawk,2013-07-27 20:35:00,
2013-07-27 15:40:00,89.3,23.0,30.13,NNE,15,8.0,0.0,9,0.00,,,0.00,867,WeatherHawk,2013-07-27 20:40:00,
2013-07-27 15:45:00,89.5,20.4,30.11,NE,43,6.0,0.0,8,0.00,,,0.00,835,WeatherHawk,2013-07-27 20:45:00,
2013-07-27 15:50:00,87.8,22.0,30.14,ENE,69,5.0,0.0,9,0.00,,,0.00,853,WeatherHawk,2013-07-27 20:50:00,
2013-07-27 15:55:00,88.6,22.6,30.12,NNE,12,4.0,0.0,9,0.00,,,0.00,848,WeatherHawk,2013-07-27 20:55:00,
2013-07-27 16:00:00,87.2,21.5,30.11,NNE,15,10.0,-999.0,9,0.00,,,0.00,816,WeatherHawk,2013-07-27 21:00:00,
2013-07-27 16:05:00,89.1,25.5,30.13,NE,50,7.0,0.0,10,0.00,,,0.00,805,WeatherHawk,2013-07-27 21:05:00,
2013-07-27 16:10:00,89.7,23.3,30.12,ENE,59,4.0,0.0,9,0.00,,,0.00,801,WeatherHawk,2013-07-27 21:10:00,
2013-07-27 16:15:00,87.3,18.8,30.13,North,5,6.0,-999.0,8,0.00,,,0.00,785,WeatherHawk,2013-07-27 21:15:00,
2013-07-27 16:20:00,89.8,17.5,30.11,East,83,7.0,0.0,7,0.00,,,0.00,771,WeatherHawk,2013-07-27 21:20:00,
2013-07-27 16:25:00,87.2,18.7,30.11,NNE,25,10.0,0.0,8,0.00,,,0.00,753,WeatherHawk,2013-07-27 21:25:00,
2013-07-27 16:30:00,87.2,21.5,30.12,NNE,22,8.0,0.0,9,0.00,,,0.00,745,WeatherHawk,2013-07-27 21:30:00,
2013-07-27 16:35:00,90.3,21.0,30.11,NE,51,3.0,0.0,8,0.00,,,0.00,735,WeatherHawk,2013-07-27 21:35:00,
2013-07-27 16:40:00,89.1,20.2,30.11,North,0,4.0,0.0,8,0.00,,,0.00,719,WeatherHawk,2013-07-27 21:40:00,
2013-07-27 16:45:00,88.6,19.8,30.11,NNE,30,6.0,0.0,8,0.00,,,0.00,707,WeatherHawk,2013-07-27 21:45:00,
2013-07-27 16:50:00,87.2,18.8,30.09,ENE,66,10.0,-999.0,8,0.00,,,0.00,695,WeatherHawk,2013-07-27 21:50:00,
2013-07-27 16:55:00,88.6,19.7,30.12,NNE,16,8.0,0.0,8,0.00,,,0.00,681,WeatherHawk,2013-07-27 21:55:00,
2013-07-27 17:00:00,89.4,20.4,30.11,NNE,18,11.0,0.0,8,0.00,,,0.00,665,WeatherHawk,2013-07-27 22:00:00,
2013-07-27 17:05:00,88.6,22.6,30.10,NNE,14,6.0,0.0,9,0.00,,,0.00,654,WeatherHawk,2013-07-27 22:05:00,
2013-07-27 17:10:00,92.3,25.3,30.11,West,270,4.0,0.0,9,0.00,,,0.00,637,WeatherHawk,2013-07-27 22:10:00,
2013-07-27 17:15:00,91.5,18.8,30.13,ENE,61,4.0,0.0,7,0.00,,,0.00,623,WeatherHawk,2013-07-27 22:15:00,
2013-07-27 17:20:00,90.0,17.7,30.10,West,281,7.0,0.0,7,0.00,,,0.00,607,WeatherHawk,2013-07-27 22:20:00,
2013-07-27 17:25:00,89.9,20.7,30.09,NNE,24,2.0,0.0,8,0.00,,,0.00,596,WeatherHawk,2013-07-27 22:25:00,
2013-07-27 17:30:00,91.1,21.6,30.10,SE,127,2.0,0.0,8,0.00,,,0.00,579,WeatherHawk,2013-07-27 22:30:00,
2013-07-27 17:35:00,90.3,17.9,30.11,NE,39,2.0,-999.0,7,0.00,,,0.00,563,WeatherHawk,2013-07-27 22:35:00,
2013-07-27 17:40:00,89.1,20.1,30.10,NE,40,1.0,0.0,8,0.00,,,0.00,543,WeatherHawk,2013-07-27 22:40:00,
2013-07-27 17:45:00,90.8,18.3,30.10,NNW,348,5.0,0.0,7,0.00,,,0.00,528,WeatherHawk,2013-07-27 22:45:00,
2013-07-27 17:50:00,87.8,16.1,30.10,NNE,19,9.0,0.0,7,0.00,,,0.00,497,WeatherHawk,2013-07-27 22:50:00,
2013-07-27 17:55:00,90.1,20.9,30.08,North,0,2.0,0.0,8,0.00,,,0.00,497,WeatherHawk,2013-07-27 22:55:00,
2013-07-27 18:00:00,88.8,22.7,30.09,North,5,6.0,0.0,9,0.00,,,0.00,480,WeatherHawk,2013-07-27 23:00:00,
2013-07-27 18:05:00,90.5,21.1,30.09,East,85,2.0,0.0,8,0.00,,,0.00,464,WeatherHawk,2013-07-27 23:05:00,
2013-07-27 18:10:00,89.0,22.8,30.09,NNE,21,5.0,-999.0,9,0.00,,,0.00,447,WeatherHawk,2013-07-27 23:10:00,
2013-07-27 18:15:00,90.7,18.2,30.09,ENE,75,0.0,0.0,7,0.00,,,0.00,429,WeatherHawk,2013-07-27 23:15:00,
2013-07-27 18:20:00,90.0,20.8,30.08,NNE,22,1.0,-999.0,8,0.00,,,0.00,416,WeatherHawk,2013-07-27 23:20:00,
2013-07-27 18:25:00,90.0,20.8,30.09,NNW,333,7.0,-999.0,8,0.00,,,0.00,400,WeatherHawk,2013-07-27 23:25:00,
2013-07-27 18:30:00,90.4,23.9,30.08,SSE,160,1.0,0.0,9,0.00,,,0.00,378,WeatherHawk,2013-07-27 23:30:00,
2013-07-27 18:35:00,89.8,17.6,30.09,ESE,108,3.0,0.0,7,0.00,,,0.00,365,WeatherHawk,2013-07-27 23:35:00,
2013-07-27 18:40:00,90.0,17.7,30.08,North,0,3.0,0.0,7,0.00,,,0.00,346,WeatherHawk,2013-07-27 23:40:00,
2013-07-27 18:45:00,89.3,17.2,30.09,NE,40,5.0,0.0,7,0.00,,,0.00,330,WeatherHawk,2013-07-27 23:45:00,
2013-07-27 18:50:00,89.9,20.7,30.08,WNW,295,3.0,-999.0,8,0.00,,,0.00,308,WeatherHawk,2013-07-27 23:50:00,
2013-07-27 18:55:00,89.3,20.3,30.07,SE,125,6.0,0.0,8,0.00,,,0.00,295,WeatherHawk,2013-07-27 23:55:00,
2013-07-27 19:00:00,89.3,23.1,30.07,East,91,1.0,0.0,9,0.00,,,0.00,277,WeatherHawk,2013-07-28 00:00:00,
2013-07-27 19:05:00,89.6,23.3,30.08,SSE,157,0.0,0.0,9,0.00,,,0.00,258,WeatherHawk,2013-07-28 00:05:00,
2013-07-27 19:10:00,88.9,22.8,30.08,ENE,66,5.0,0.0,9,0.00,,,0.00,243,WeatherHawk,2013-07-28 00:10:00,
2013-07-27 19:15:00,88.8,19.9,30.07,NNE,30,0.0,0.0,8,0.00,,,0.00,224,WeatherHawk,2013-07-28 00:15:00,
2013-07-27 19:20:00,88.4,22.4,30.07,NNE,13,4.0,-999.0,9,0.00,,,0.00,209,WeatherHawk,2013-07-28 00:20:00,
2013-07-27 19:25:00,88.7,25.1,30.07,NE,39,2.0,0.0,10,0.00,,,0.00,192,WeatherHawk,2013-07-28 00:25:00,
2013-07-27 19:30:00,88.6,22.5,30.07,South,190,2.0,0.0,9,0.00,,,0.00,175,WeatherHawk,2013-07-28 00:30:00,
2013-07-27 19:35:00,88.0,22.1,30.07,East,94,6.0,0.0,9,0.00,,,0.00,159,WeatherHawk,2013-07-28 00:35:00,
2013-07-27 19:40:00,88.3,24.8,30.08,SE,132,3.0,0.0,10,0.00,,,0.00,143,WeatherHawk,2013-07-28 00:40:00,
2013-07-27 19:45:00,88.2,24.8,30.08,ESE,118,1.0,0.0,10,0.00,,,0.00,134,WeatherHawk,2013-07-28 00:45:00,
2013-07-27 19:50:00,87.7,26.7,30.09,East,87,1.0,-999.0,11,0.00,,,0.00,109,WeatherHawk,2013-07-28 00:50:00,
2013-07-27 19:55:00,87.4,26.5,30.08,ESE,110,2.0,-999.0,11,0.00,,,0.00,90,WeatherHawk,2013-07-28 00:55:00,
2013-07-27 20:01:00,87.9,26.8,30.08,North,0,1.0,0.0,11,0.00,,,0.00,68,WeatherHawk,2013-07-28 01:01:00,
2013-07-27 20:07:00,87.4,28.6,30.08,ENE,58,2.0,0.0,12,0.00,,,0.00,58,WeatherHawk,2013-07-28 01:07:00,
2013-07-27 20:12:00,87.1,28.3,30.08,NE,51,3.0,0.0,12,0.00,,,0.00,43,WeatherHawk,2013-07-28 01:12:00,
2013-07-27 20:17:00,87.0,30.2,30.09,NE,49,3.0,0.0,13,0.00,,,0.00,26,WeatherHawk,2013-07-28 01:17:00,
2013-07-27 20:22:00,86.6,29.9,30.08,East,85,3.0,0.0,13,0.00,,,0.00,16,WeatherHawk,2013-07-28 01:22:00,
2013-07-27 20:27:00,86.2,29.6,30.09,West,267,3.0,0.0,13,0.00,,,0.00,6,WeatherHawk,2013-07-28 01:27:00,
2013-07-27 20:32:00,86.3,31.5,30.09,ESE,112,2.0,0.0,14,0.00,,,0.00,4,WeatherHawk,2013-07-28 01:32:00,
2013-07-27 20:37:00,85.7,31.0,30.08,North,349,0.0,0.0,14,0.00,,,0.00,2,WeatherHawk,2013-07-28 01:37:00,
2013-07-27 20:43:00,85.7,32.7,30.10,ENE,73,3.0,0.0,15,0.00,,,0.00,1,WeatherHawk,2013-07-28 01:43:00,
2013-07-27 20:48:00,85.2,32.3,30.10,East,85,1.0,0.0,15,0.00,,,0.00,0,WeatherHawk,2013-07-28 01:48:00,
2013-07-27 20:53:00,85.0,33.8,30.09,ESE,116,2.0,0.0,16,0.00,,,0.00,0,WeatherHawk,2013-07-28 01:53:00,
2013-07-27 20:58:00,85.0,33.8,30.10,ENE,58,2.0,0.0,16,0.00,,,0.00,0,WeatherHawk,2013-07-28 01:58:00,
2013-07-27 21:03:00,84.7,35.0,30.11,South,171,0.0,0.0,17,0.00,,,0.00,0,WeatherHawk,2013-07-28 02:03:00,
2013-07-27 21:08:00,84.8,35.1,30.10,NNE,31,4.0,0.0,17,0.00,,,0.00,0,WeatherHawk,2013-07-28 02:08:00,
2013-07-27 21:13:00,84.7,35.0,30.12,East,98,3.0,0.0,17,0.00,,,0.00,1,WeatherHawk,2013-07-28 02:13:00,
2013-07-27 21:19:00,84.2,36.1,30.12,ESE,112,2.0,0.0,18,0.00,,,0.00,0,WeatherHawk,2013-07-28 02:19:00,
2013-07-27 21:24:00,83.5,36.9,30.13,SSW,194,5.0,0.0,19,0.00,,,0.00,0,WeatherHawk,2013-07-28 02:24:00,
2013-07-27 21:29:00,83.3,38.0,30.13,SSW,193,2.0,0.0,20,0.00,,,0.00,0,WeatherHawk,2013-07-28 02:29:00,
2013-07-27 21:34:00,83.3,39.3,30.13,ESE,112,5.0,0.0,21,0.00,,,0.00,1,WeatherHawk,2013-07-28 02:34:00,
2013-07-27 21:39:00,83.1,39.1,30.12,ENE,70,7.0,0.0,21,0.00,,,0.00,2,WeatherHawk,2013-07-28 02:39:00,
2013-07-27 21:44:00,82.7,39.9,30.14,ESE,107,4.0,0.0,22,0.00,,,0.00,0,WeatherHawk,2013-07-28 02:44:00,
2013-07-27 21:50:00,82.2,39.6,30.13,East,88,2.0,0.0,22,0.00,,,0.00,0,WeatherHawk,2013-07-28 02:50:00,
2013-07-27 21:55:00,82.0,40.5,30.15,ESE,109,0.0,-999.0,23,0.00,,,0.00,0,WeatherHawk,2013-07-28 02:55:00,
2013-07-27 22:00:00,82.2,41.8,30.15,ESE,103,3.0,0.0,24,0.00,,,0.00,0,WeatherHawk,2013-07-28 03:00:00,
2013-07-27 22:05:00,81.8,41.4,30.15,NNE,27,1.0,0.0,24,0.00,,,0.00,0,WeatherHawk,2013-07-28 03:05:00,
2013-07-27 22:10:00,81.6,42.3,30.15,ESE,117,3.0,0.0,25,0.00,,,0.00,0,WeatherHawk,2013-07-28 03:10:00,
2013-07-27 22:15:00,81.6,42.4,30.15,SE,124,4.0,0.0,25,0.00,,,0.00,0,WeatherHawk,2013-07-28 03:15:00,
2013-07-27 22:20:00,81.5,42.3,30.16,NE,48,4.0,-999.0,25,0.00,,,0.00,1,WeatherHawk,2013-07-28 03:20:00,
2013-07-27 22:25:00,81.1,42.9,30.15,SE,130,3.0,-999.0,26,0.00,,,0.00,0,WeatherHawk,2013-07-28 03:25:00,
2013-07-27 22:30:00,81.4,43.2,30.17,ESE,123,5.0,-999.0,26,0.00,,,0.00,0,WeatherHawk,2013-07-28 03:30:00,
2013-07-27 22:35:00,80.5,43.5,30.17,SSE,150,1.0,0.0,27,0.00,,,0.00,0,WeatherHawk,2013-07-28 03:35:00,
2013-07-27 22:40:00,80.5,43.5,30.17,ENE,75,2.0,0.0,27,0.00,,,0.00,0,WeatherHawk,2013-07-28 03:40:00,
2013-07-27 22:45:00,80.6,43.5,30.17,SSE,152,5.0,0.0,27,0.00,,,0.00,0,WeatherHawk,2013-07-28 03:45:00,
2013-07-27 22:50:00,80.0,43.9,30.18,SE,128,0.0,-999.0,28,0.00,,,0.00,0,WeatherHawk,2013-07-28 03:50:00,
2013-07-27 22:55:00,80.1,44.0,30.18,ESE,106,2.0,-999.0,28,0.00,,,0.00,0,WeatherHawk,2013-07-28 03:55:00,
2013-07-27 23:00:00,80.2,45.0,30.17,SE,129,3.0,0.0,29,0.00,,,0.00,0,WeatherHawk,2013-07-28 04:00:00,
2013-07-27 23:01:00,80.0,44.9,30.18,ESE,117,2.0,0.0,29,0.00,,,0.00,0,WeatherHawk,2013-07-28 04:01:00,
2013-07-27 23:02:00,80.1,45.0,30.17,East,99,3.0,0.0,29,0.00,,,0.00,0,WeatherHawk,2013-07-28 04:02:00,
2013-07-27 23:03:00,80.2,45.1,30.17,ESE,118,5.0,0.0,29,0.00,,,0.00,1,WeatherHawk,2013-07-28 04:03:00,
2013-07-27 23:05:00,80.0,44.8,30.17,ESE,113,2.0,0.0,29,0.00,,,0.00,1,WeatherHawk,2013-07-28 04:05:00,
2013-07-27 23:10:00,79.9,44.8,30.17,East,96,3.0,0.0,29,0.00,,,0.00,0,WeatherHawk,2013-07-28 04:10:00,
2013-07-27 23:15:00,80.0,44.8,30.16,ESE,111,5.0,0.0,29,0.00,,,0.00,1,WeatherHawk,2013-07-28 04:15:00,
2013-07-27 23:20:00,79.7,44.6,30.17,ESE,115,3.0,0.0,29,0.00,,,0.00,0,WeatherHawk,2013-07-28 04:20:00,
2013-07-27 23:25:00,79.7,45.5,30.17,ESE,103,4.0,0.0,30,0.00,,,0.00,0,WeatherHawk,2013-07-28 04:25:00,
2013-07-27 23:30:00,79.2,45.1,30.16,South,178,0.0,0.0,30,0.00,,,0.00,0,WeatherHawk,2013-07-28 04:30:00,
2013-07-27 23:36:00,79.4,45.2,30.17,ESE,118,1.0,0.0,30,0.00,,,0.00,0,WeatherHawk,2013-07-28 04:36:00,
2013-07-27 23:41:00,79.0,44.9,30.17,ESE,109,0.0,0.0,30,0.00,,,0.00,0,WeatherHawk,2013-07-28 04:41:00,
2013-07-27 23:47:00,78.9,45.7,30.17,South,173,0.0,0.0,31,0.00,,,0.00,0,WeatherHawk,2013-07-28 04:47:00,
2013-07-27 23:52:00,79.7,46.4,30.17,ESE,102,1.0,0.0,31,0.00,,,0.00,0,WeatherHawk,2013-07-28 04:52:00,
2013-07-27 23:58:00,79.4,47.7,30.16,ESE,118,2.0,0.0,33,0.00,,,0.00,0,WeatherHawk,2013-07-28 04:58:00,